#Datum;Uhrzeit;WR;Pac;DaySum;Status;WR;Pac;DaySum;Status;Pdc1;Udc;Temp;WR;Pac;DaySum;Status;Pdc1;Udc;Temp;WR;Pac;DaySum;Status;Pdc1;Udc;Temp;WR;Pac;DaySum;Status;Pdc1;Pdc2;Udc1;Udc2;Temp;WR;Pac;DaySum;Status;Pdc1;Pdc2;Udc1;Udc2;Temp;WR;Pac;DaySum;Status;Pdc1;Udc;Temp;WR;Pac;DaySum;Status;Pdc1;Udc;Temp;WR;Pac;DaySum;Status;Pdc1;Udc;Temp
04.02.18;23:55:00;1;330;15308;0;2;0;7952;0;0;0;0;3;0;4842;0;0;0;0;4;0;6170;0;0;0;0;5;0;15532;0;0;0;0;0;0;6;0;11826;0;0;0;0;0;0;7;0;9793;0;0;0;0;8;0;9528;0;0;0;0;9;0;5142;0;0;0;0
04.02.18;23:50:00;1;331;15280;0;2;0;7952;0;0;0;0;3;0;4842;0;0;0;0;4;0;6170;0;0;0;0;5;0;15532;0;0;0;0;0;0;6;0;11826;0;0;0;0;0;0;7;0;9793;0;0;0;0;8;0;9528;0;0;0;0;9;0;5142;0;0;0;0
04.02.18;23:45:00;1;257;15252;0;2;0;7952;0;0;0;0;3;0;4842;0;0;0;0;4;0;6170;0;0;0;0;5;0;15532;0;0;0;0;0;0;6;0;11826;0;0;0;0;0;0;7;0;9793;0;0;0;0;8;0;9528;0;0;0;0;9;0;5142;0;0;0;0
04.02.18;23:40:00;1;219;15231;0;2;0;7952;0;0;0;0;3;0;4842;0;0;0;0;4;0;6170;0;0;0;0;5;0;15532;0;0;0;0;0;0;6;0;11826;0;0;0;0;0;0;7;0;9793;0;0;0;0;8;0;9528;0;0;0;0;9;0;5142;0;0;0;0
04.02.18;23:35:00;1;222;15213;0;2;0;7952;0;0;0;0;3;0;4842;0;0;0;0;4;0;6170;0;0;0;0;5;0;15532;0;0;0;0;0;0;6;0;11826;0;0;0;0;0;0;7;0;9793;0;0;0;0;8;0;9528;0;0;0;0;9;0;5142;0;0;0;0
04.02.18;23:30:00;1;273;15194;0;2;0;7952;0;0;0;0;3;0;4842;0;0;0;0;4;0;6170;0;0;0;0;5;0;15532;0;0;0;0;0;0;6;0;11826;0;0;0;0;0;0;7;0;9793;0;0;0;0;8;0;9528;0;0;0;0;9;0;5142;0;0;0;0
04.02.18;23:25:00;1;253;15171;0;2;0;7952;0;0;0;0;3;0;4842;0;0;0;0;4;0;6170;0;0;0;0;5;0;15532;0;0;0;0;0;0;6;0;11826;0;0;0;0;0;0;7;0;9793;0;0;0;0;8;0;9528;0;0;0;0;9;0;5142;0;0;0;0
04.02.18;23:20:00;1;266;15150;0;2;0;7952;0;0;0;0;3;0;4842;0;0;0;0;4;0;6170;0;0;0;0;5;0;15532;0;0;0;0;0;0;6;0;11826;0;0;0;0;0;0;7;0;9793;0;0;0;0;8;0;9528;0;0;0;0;9;0;5142;0;0;0;0
04.02.18;23:15:00;1;246;15128;0;2;0;7952;0;0;0;0;3;0;4842;0;0;0;0;4;0;6170;0;0;0;0;5;0;15532;0;0;0;0;0;0;6;0;11826;0;0;0;0;0;0;7;0;9793;0;0;0;0;8;0;9528;0;0;0;0;9;0;5142;0;0;0;0
04.02.18;23:10:00;1;243;15107;0;2;0;7952;0;0;0;0;3;0;4842;0;0;0;0;4;0;6170;0;0;0;0;5;0;15532;0;0;0;0;0;0;6;0;11826;0;0;0;0;0;0;7;0;9793;0;0;0;0;8;0;9528;0;0;0;0;9;0;5142;0;0;0;0
04.02.18;23:06:00;1;256;15095;0;2;0;7952;0;0;0;0;3;0;4842;0;0;0;0;4;0;6170;0;0;0;0;5;0;15532;0;0;0;0;0;0;6;0;11826;0;0;0;0;0;0;7;0;9793;0;0;0;0;8;0;9528;0;0;0;0;9;0;5142;0;0;0;0
04.02.18;23:00:00;1;351;15060;0;2;0;7952;0;0;0;0;3;0;4842;0;0;0;0;4;0;6170;0;0;0;0;5;0;15532;0;0;0;0;0;0;6;0;11826;0;0;0;0;0;0;7;0;9793;0;0;0;0;8;0;9528;0;0;0;0;9;0;5142;0;0;0;0
04.02.18;22:55:00;1;378;15030;0;2;0;7952;0;0;0;0;3;0;4842;0;0;0;0;4;0;6170;0;0;0;0;5;0;15532;2;0;0;0;0;0;6;0;11826;2;0;0;0;0;0;7;0;9793;0;0;0;0;8;0;9528;0;0;0;0;9;0;5142;0;0;0;0
04.02.18;22:50:00;1;433;14999;0;2;0;7952;0;0;0;0;3;0;4842;0;0;0;0;4;0;6170;0;0;0;0;5;0;15532;2;0;0;0;0;0;6;0;11826;2;0;0;0;0;0;7;0;9793;0;0;0;0;8;0;9528;0;0;0;0;9;0;5142;0;0;0;0
04.02.18;22:45:00;1;327;14971;0;2;0;7952;0;0;0;0;3;0;4842;0;0;0;0;4;0;6170;0;0;0;0;5;0;15532;2;0;0;0;0;0;6;0;11826;2;0;0;0;0;0;7;0;9793;0;0;0;0;8;0;9528;0;0;0;0;9;0;5142;0;0;0;0
04.02.18;22:40:00;1;330;14943;0;2;0;7952;0;0;0;0;3;0;4842;0;0;0;0;4;0;6170;0;0;0;0;5;0;15532;2;0;0;0;0;0;6;0;11826;2;0;0;0;0;0;7;0;9793;0;0;0;0;8;0;9528;0;0;0;0;9;0;5142;0;0;0;0
04.02.18;22:35:00;1;871;14916;0;2;0;7952;0;0;0;0;3;0;4842;0;0;0;0;4;0;6170;0;0;0;0;5;0;15532;2;0;0;0;0;0;6;0;11826;2;0;0;0;0;0;7;0;9793;0;0;0;0;8;0;9528;0;0;0;0;9;0;5142;0;0;0;0
04.02.18;22:30:00;1;2227;14824;0;2;0;7952;0;0;0;0;3;0;4842;0;0;0;0;4;0;6170;0;0;0;0;5;0;15532;2;0;0;0;0;0;6;0;11826;2;0;0;0;0;0;7;0;9793;0;0;0;0;8;0;9528;0;0;0;0;9;0;5142;0;0;0;0
04.02.18;22:25:00;1;2166;14639;0;2;0;7952;0;0;0;0;3;0;4842;0;0;0;0;4;0;6170;0;0;0;0;5;0;15532;2;0;0;0;0;0;6;0;11826;2;0;0;0;0;0;7;0;9793;0;0;0;0;8;0;9528;0;0;0;0;9;0;5142;0;0;0;0
04.02.18;22:20:00;1;1941;14458;0;2;0;7952;0;0;0;0;3;0;4842;0;0;0;0;4;0;6170;0;0;0;0;5;0;15532;2;0;0;0;0;0;6;0;11826;2;0;0;0;0;0;7;0;9793;0;0;0;0;8;0;9528;0;0;0;0;9;0;5142;0;0;0;0
04.02.18;22:15:00;1;1381;14334;0;2;0;7952;0;0;0;0;3;0;4842;0;0;0;0;4;0;6170;0;0;0;0;5;0;15532;2;0;0;0;0;0;6;0;11826;2;0;0;0;0;0;7;0;9793;0;0;0;0;8;0;9528;0;0;0;0;9;0;5142;0;0;0;0
04.02.18;22:10:00;1;332;14208;0;2;0;7952;0;0;0;0;3;0;4842;0;0;0;0;4;0;6170;0;0;0;0;5;0;15532;2;0;0;0;0;0;6;0;11826;2;0;0;0;0;0;7;0;9793;0;0;0;0;8;0;9528;0;0;0;0;9;0;5142;0;0;0;0
04.02.18;22:05:00;1;353;14180;0;2;0;7952;0;0;0;0;3;0;4842;0;0;0;0;4;0;6170;0;0;0;0;5;0;15532;2;0;0;0;0;0;6;0;11826;2;0;0;0;0;0;7;0;9793;0;0;0;0;8;0;9528;0;0;0;0;9;0;5142;0;0;0;0
04.02.18;22:00:00;1;1268;14151;0;2;0;7952;0;0;0;0;3;0;4842;0;0;0;0;4;0;6170;0;0;0;0;5;0;15532;2;0;0;0;0;0;6;0;11826;2;0;0;0;0;0;7;0;9793;0;0;0;0;8;0;9528;0;0;0;0;9;0;5142;0;0;0;0
04.02.18;21:55:00;1;1682;14028;0;2;0;7952;0;0;0;0;3;0;4842;0;0;0;0;4;0;6170;0;0;0;0;5;0;15532;2;0;0;0;0;0;6;0;11826;2;0;0;0;0;0;7;0;9793;0;0;0;0;8;0;9528;0;0;0;0;9;0;5142;0;0;0;0
04.02.18;21:50:00;1;591;13913;0;2;0;7952;0;0;0;0;3;0;4842;0;0;0;0;4;0;6170;0;0;0;0;5;0;15532;2;0;0;0;0;0;6;0;11826;2;0;0;0;0;0;7;0;9793;0;0;0;0;8;0;9528;0;0;0;0;9;0;5142;0;0;0;0
04.02.18;21:45:00;1;2246;13855;0;2;0;7952;0;0;0;0;3;0;4842;0;0;0;0;4;0;6170;0;0;0;0;5;0;15532;2;0;0;0;0;0;6;0;11826;2;0;0;0;0;0;7;0;9793;0;0;0;0;8;0;9528;0;0;0;0;9;0;5142;0;0;0;0
04.02.18;21:40:00;1;788;13667;0;2;0;7952;0;0;0;0;3;0;4842;0;0;0;0;4;0;6170;0;0;0;0;5;0;15532;2;0;0;0;0;0;6;0;11826;2;0;0;0;0;0;7;0;9793;0;0;0;0;8;0;9528;0;0;0;0;9;0;5142;0;0;0;0
04.02.18;21:35:00;1;1457;13616;0;2;0;7952;0;0;0;0;3;0;4842;0;0;0;0;4;0;6170;0;0;0;0;5;0;15532;2;0;0;0;0;0;6;0;11826;2;0;0;0;0;0;7;0;9793;0;0;0;0;8;0;9528;0;0;0;0;9;0;5142;0;0;0;0
04.02.18;21:30:00;1;2357;13483;0;2;0;7952;0;0;0;0;3;0;4842;0;0;0;0;4;0;6170;0;0;0;0;5;0;15532;2;0;0;0;0;0;6;0;11826;2;0;0;0;0;0;7;0;9793;0;0;0;0;8;0;9528;0;0;0;0;9;0;5142;0;0;0;0
04.02.18;21:25:00;1;1222;13288;0;2;0;7952;0;0;0;0;3;0;4842;0;0;0;0;4;0;6170;0;0;0;0;5;0;15532;2;0;0;0;0;0;6;0;11826;2;0;0;0;0;0;7;0;9793;0;0;0;0;8;0;9528;0;0;0;0;9;0;5142;0;0;0;0
04.02.18;21:20:00;1;332;13215;0;2;0;7952;0;0;0;0;3;0;4842;0;0;0;0;4;0;6170;0;0;0;0;5;0;15532;2;0;0;0;0;0;6;0;11826;2;0;0;0;0;0;7;0;9793;0;0;0;0;8;0;9528;0;0;0;0;9;0;5142;0;0;0;0
04.02.18;21:15:00;1;365;13187;0;2;0;7952;0;0;0;0;3;0;4842;0;0;0;0;4;0;6170;0;0;0;0;5;0;15532;2;0;0;0;0;0;6;0;11826;2;0;0;0;0;0;7;0;9793;0;0;0;0;8;0;9528;0;0;0;0;9;0;5142;0;0;0;0
04.02.18;21:10:00;1;370;13157;0;2;0;7952;0;0;0;0;3;0;4842;0;0;0;0;4;0;6170;0;0;0;0;5;0;15532;2;0;0;0;0;0;6;0;11826;2;0;0;0;0;0;7;0;9793;0;0;0;0;8;0;9528;0;0;0;0;9;0;5142;0;0;0;0
04.02.18;21:05:00;1;341;13126;0;2;0;7952;0;0;0;0;3;0;4842;0;0;0;0;4;0;6170;0;0;0;0;5;0;15532;2;0;0;0;0;0;6;0;11826;2;0;0;0;0;0;7;0;9793;0;0;0;0;8;0;9528;0;0;0;0;9;0;5142;0;0;0;0
04.02.18;21:00:00;1;277;13098;0;2;0;7952;0;0;0;0;3;0;4842;0;0;0;0;4;0;6170;0;0;0;0;5;0;15532;2;0;0;0;0;0;6;0;11826;2;0;0;0;0;0;7;0;9793;0;0;0;0;8;0;9528;0;0;0;0;9;0;5142;0;0;0;0
04.02.18;20:55:00;1;269;13074;0;2;0;7952;0;0;0;0;3;0;4842;0;0;0;0;4;0;6170;0;0;0;0;5;0;15532;2;0;0;0;0;0;6;0;11826;2;0;0;0;0;0;7;0;9793;0;0;0;0;8;0;9528;0;0;0;0;9;0;5142;0;0;0;0
04.02.18;20:50:00;1;269;13052;0;2;0;7952;0;0;0;0;3;0;4842;0;0;0;0;4;0;6170;0;0;0;0;5;0;15532;2;0;0;0;0;0;6;0;11826;2;0;0;0;0;0;7;0;9793;0;0;0;0;8;0;9528;0;0;0;0;9;0;5142;0;0;0;0
04.02.18;20:45:00;1;269;13029;0;2;0;7952;0;0;0;0;3;0;4842;0;0;0;0;4;0;6170;0;0;0;0;5;0;15532;2;0;0;0;0;0;6;0;11826;2;0;0;0;0;0;7;0;9793;0;0;0;0;8;0;9528;0;0;0;0;9;0;5142;0;0;0;0
04.02.18;20:40:00;1;270;13007;0;2;0;7952;0;0;0;0;3;0;4842;0;0;0;0;4;0;6170;0;0;0;0;5;0;15532;2;0;0;0;0;0;6;0;11826;2;0;0;0;0;0;7;0;9793;0;0;0;0;8;0;9528;0;0;0;0;9;0;5142;0;0;0;0
04.02.18;20:35:00;1;1155;12984;0;2;0;7952;0;0;0;0;3;0;4842;0;0;0;0;4;0;6170;0;0;0;0;5;0;15532;2;0;0;0;0;0;6;0;11826;2;0;0;0;0;0;7;0;9793;0;0;0;0;8;0;9528;0;0;0;0;9;0;5142;0;0;0;0
04.02.18;20:30:00;1;1424;12893;0;2;0;7952;0;0;0;0;3;0;4842;0;0;0;0;4;0;6170;0;0;0;0;5;0;15532;2;0;0;0;0;0;6;0;11826;2;0;0;0;0;0;7;0;9793;0;0;0;0;8;0;9528;0;0;0;0;9;0;5142;0;0;0;0
04.02.18;20:25:00;1;891;12827;0;2;0;7952;0;0;0;0;3;0;4842;0;0;0;0;4;0;6170;0;0;0;0;5;0;15532;2;0;0;0;0;0;6;0;11826;2;0;0;0;0;0;7;0;9793;0;0;0;0;8;0;9528;0;0;0;0;9;0;5142;0;0;0;0
04.02.18;20:20:00;1;1580;12738;0;2;0;7952;0;0;0;0;3;0;4842;0;0;0;0;4;0;6170;0;0;0;0;5;0;15532;2;0;0;0;0;0;6;0;11826;2;0;0;0;0;0;7;0;9793;0;0;0;0;8;0;9528;0;0;0;0;9;0;5142;0;0;0;0
04.02.18;20:15:00;1;1761;12627;0;2;0;7952;0;0;0;0;3;0;4842;0;0;0;0;4;0;6170;0;0;0;0;5;0;15532;2;0;0;0;0;0;6;0;11826;2;0;0;0;0;0;7;0;9793;0;0;0;0;8;0;9528;0;0;0;0;9;0;5142;0;0;0;0
04.02.18;20:10:00;1;1209;12508;0;2;0;7952;0;0;0;0;3;0;4842;0;0;0;0;4;0;6170;0;0;0;0;5;0;15532;2;0;0;0;0;0;6;0;11826;2;0;0;0;0;0;7;0;9793;0;0;0;0;8;0;9528;0;0;0;0;9;0;5142;0;0;0;0
04.02.18;20:05:00;1;1261;12418;0;2;0;7952;0;0;0;0;3;0;4842;0;0;0;0;4;0;6170;0;0;0;0;5;0;15532;2;0;0;0;0;0;6;0;11826;2;0;0;0;0;0;7;0;9793;0;0;0;0;8;0;9528;0;0;0;0;9;0;5142;0;0;0;0
04.02.18;20:00:00;1;2004;12291;0;2;0;7952;0;0;0;0;3;0;4842;0;0;0;0;4;0;6170;0;0;0;0;5;0;15532;2;0;0;0;0;0;6;0;11826;2;0;0;0;0;0;7;0;9793;0;0;0;0;8;0;9528;0;0;0;0;9;0;5142;0;0;0;0
04.02.18;19:55:00;1;3279;12110;0;2;0;7952;0;0;0;0;3;0;4842;0;0;0;0;4;0;6170;0;0;0;0;5;0;15532;2;0;0;0;0;0;6;0;11826;2;0;0;0;0;0;7;0;9793;0;0;0;0;8;0;9528;0;0;0;0;9;0;5142;0;0;0;0
04.02.18;19:50:00;1;2960;11847;0;2;0;7952;0;0;0;0;3;0;4842;0;0;0;0;4;0;6170;0;0;0;0;5;0;15532;2;0;0;0;0;0;6;0;11826;2;0;0;0;0;0;7;0;9793;0;0;0;0;8;0;9528;0;0;0;0;9;0;5142;0;0;0;0
04.02.18;19:45:00;1;1866;11582;0;2;0;7952;0;0;0;0;3;0;4842;0;0;0;0;4;0;6170;0;0;0;0;5;0;15532;2;0;0;0;0;0;6;0;11826;2;0;0;0;0;0;7;0;9793;0;0;0;0;8;0;9528;0;0;0;0;9;0;5142;0;0;0;0
04.02.18;19:40:00;1;1390;11473;0;2;0;7952;0;0;0;0;3;0;4842;0;0;0;0;4;0;6170;0;0;0;0;5;0;15532;2;0;0;0;0;0;6;0;11826;2;0;0;0;0;0;7;0;9793;0;0;0;0;8;0;9528;0;0;0;0;9;0;5142;0;0;0;0
04.02.18;19:35:00;1;337;11367;0;2;0;7952;0;0;0;0;3;0;4842;0;0;0;0;4;0;6170;0;0;0;0;5;0;15532;2;0;0;0;0;0;6;0;11826;2;0;0;0;0;0;7;0;9793;0;0;0;0;8;0;9528;0;0;0;0;9;0;5142;0;0;0;0
04.02.18;19:30:00;1;265;11339;0;2;0;7952;0;0;0;0;3;0;4842;0;0;0;0;4;0;6170;0;0;0;0;5;0;15532;2;0;0;0;0;0;6;0;11826;2;0;0;0;0;0;7;0;9793;0;0;0;0;8;0;9528;0;0;0;0;9;0;5142;0;0;0;0
04.02.18;19:25:00;1;266;11317;0;2;0;7952;0;0;0;0;3;0;4842;0;0;0;0;4;0;6170;0;0;0;0;5;0;15532;2;0;0;0;0;0;6;0;11826;2;0;0;0;0;0;7;0;9793;0;0;0;0;8;0;9528;0;0;0;0;9;0;5142;0;0;0;0
04.02.18;19:20:00;1;267;11295;0;2;0;7952;0;0;0;0;3;0;4842;0;0;0;0;4;0;6170;0;0;0;0;5;0;15532;2;0;0;0;0;0;6;0;11826;2;0;0;0;0;0;7;0;9793;0;0;0;0;8;0;9528;0;0;0;0;9;0;5142;0;0;0;0
04.02.18;19:15:00;1;257;11273;0;2;0;7952;0;0;0;0;3;0;4842;0;0;0;0;4;0;6170;0;0;0;0;5;0;15532;2;0;0;0;0;0;6;0;11826;2;0;0;0;0;0;7;0;9793;0;0;0;0;8;0;9528;0;0;0;0;9;0;5142;0;0;0;0
04.02.18;19:10:00;1;259;11251;0;2;0;7952;0;0;0;0;3;0;4842;0;0;0;0;4;0;6170;0;0;0;0;5;0;15532;2;0;0;0;0;0;6;0;11826;2;0;0;0;0;0;7;0;9793;0;0;0;0;8;0;9528;0;0;0;0;9;0;5142;0;0;0;0
04.02.18;19:05:00;1;313;11229;0;2;0;7952;0;0;0;0;3;0;4842;0;0;0;0;4;0;6170;0;0;0;0;5;0;15532;2;0;0;0;0;0;6;0;11826;2;0;0;0;0;0;7;0;9793;0;0;0;0;8;0;9528;0;0;0;0;9;0;5142;0;0;0;0
04.02.18;19:00:00;1;681;11182;0;2;0;7952;0;0;0;0;3;0;4842;0;0;0;0;4;0;6170;0;0;0;0;5;0;15532;2;0;0;0;0;0;6;0;11826;2;0;0;0;0;0;7;0;9793;0;0;0;0;8;0;9528;0;0;0;0;9;0;5142;0;0;0;0
04.02.18;18:55:00;1;451;11107;0;2;0;7952;0;0;0;0;3;0;4842;0;0;0;0;4;0;6170;0;0;0;0;5;0;15532;2;0;0;0;0;0;6;0;11826;2;0;0;0;0;0;7;0;9793;0;0;0;0;8;0;9528;0;0;0;0;9;0;5142;0;0;0;0
04.02.18;18:50:00;1;247;11081;0;2;0;7952;0;0;0;0;3;0;4842;0;0;0;0;4;0;6170;0;0;0;0;5;0;15532;2;0;0;0;0;0;6;0;11826;2;0;0;0;0;0;7;0;9793;0;0;0;0;8;0;9528;0;0;0;0;9;0;5142;0;0;0;0
04.02.18;18:45:00;1;230;11060;0;2;0;7952;0;0;0;0;3;0;4842;0;0;0;0;4;0;6170;0;0;0;0;5;0;15532;2;0;0;0;0;0;6;0;11826;2;0;0;0;0;0;7;0;9793;0;0;0;0;8;0;9528;0;0;0;0;9;0;5142;0;0;0;0
04.02.18;18:40:00;1;248;11041;0;2;0;7952;0;0;0;0;3;0;4842;0;0;0;0;4;0;6170;0;0;0;0;5;0;15532;2;0;0;0;0;0;6;0;11826;2;0;0;0;0;0;7;0;9793;0;0;0;0;8;0;9528;0;0;0;0;9;0;5142;0;0;0;0
04.02.18;18:35:00;1;316;11020;0;2;0;7952;0;0;0;0;3;0;4842;0;0;0;0;4;0;6170;0;0;0;0;5;0;15532;2;0;0;0;0;0;6;0;11826;2;0;0;0;0;0;7;0;9793;0;0;0;0;8;0;9528;0;0;0;0;9;0;5142;0;0;0;0
04.02.18;18:30:00;1;531;10994;0;2;0;7952;0;0;0;0;3;0;4842;0;0;0;0;4;0;6170;0;0;0;0;5;0;15532;2;0;0;0;0;0;6;0;11826;2;0;0;0;0;0;7;0;9793;0;0;0;0;8;0;9528;0;0;0;0;9;0;5142;0;0;0;0
04.02.18;18:25:00;1;380;10951;0;2;0;7952;0;0;0;0;3;0;4842;0;0;0;0;4;0;6170;0;0;0;0;5;0;15532;2;0;0;0;0;0;6;0;11826;2;0;0;0;0;0;7;0;9793;0;0;0;0;8;0;9528;0;0;0;0;9;0;5142;0;0;0;0
04.02.18;18:20:00;1;353;10917;0;2;0;7952;0;0;0;0;3;0;4842;0;0;0;0;4;0;6170;0;0;0;0;5;0;15532;2;0;0;0;0;0;6;0;11826;2;0;0;0;0;0;7;0;9793;0;0;0;0;8;0;9528;0;0;0;0;9;0;5142;0;0;0;0
04.02.18;18:15:00;1;408;10887;0;2;0;7952;0;0;0;0;3;0;4842;0;0;0;0;4;0;6170;0;0;0;0;5;0;15532;2;0;0;0;0;0;6;0;11826;2;0;0;0;0;0;7;0;9793;0;0;0;0;8;0;9528;0;0;0;0;9;0;5142;0;0;0;0
04.02.18;18:10:00;1;428;10855;0;2;0;7952;0;0;0;0;3;0;4842;0;0;0;0;4;0;6170;0;0;0;0;5;0;15532;2;0;0;0;0;0;6;0;11826;2;0;0;0;0;0;7;0;9793;0;0;0;0;8;0;9528;0;0;0;0;9;0;5142;0;0;0;0
04.02.18;18:05:00;1;418;10818;0;2;0;7952;0;0;0;0;3;0;4842;0;0;0;0;4;0;6170;0;0;0;0;5;0;15532;2;0;0;0;0;0;6;0;11826;2;0;0;0;0;0;7;0;9793;0;0;0;0;8;0;9528;0;0;0;0;9;0;5142;0;0;0;0
04.02.18;18:00:00;1;429;10784;0;2;0;7952;0;0;0;0;3;0;4842;0;0;0;0;4;0;6170;0;0;0;0;5;0;15532;2;0;0;0;0;0;6;0;11826;2;0;0;0;0;0;7;0;9793;0;0;0;0;8;0;9528;0;0;0;0;9;0;5142;0;0;0;0
04.02.18;17:55:00;1;454;10749;0;2;0;7952;0;0;0;0;3;0;4842;0;0;0;0;4;0;6170;0;0;0;0;5;0;15532;2;0;0;0;0;0;6;0;11826;2;0;0;0;0;0;7;0;9793;0;0;0;0;8;0;9528;0;0;0;0;9;0;5142;0;0;0;0
04.02.18;17:50:00;1;468;10711;0;2;0;7952;0;0;0;0;3;0;4842;0;0;0;0;4;0;6170;0;0;0;0;5;0;15532;2;0;0;0;0;0;6;0;11826;2;0;0;0;0;0;7;0;9793;0;0;0;0;8;0;9528;0;0;0;0;9;0;5142;0;0;0;0
04.02.18;17:45:00;1;466;10672;0;2;0;7952;0;0;0;0;3;0;4842;0;0;0;0;4;0;6170;0;0;0;0;5;0;15532;2;0;0;0;0;0;6;0;11826;2;0;0;0;0;0;7;0;9793;0;0;0;0;8;0;9528;0;0;0;0;9;0;5142;0;0;0;0
04.02.18;17:40:00;1;508;10632;0;2;0;7952;0;0;0;0;3;0;4842;0;0;0;0;4;0;6170;0;0;0;0;5;0;15532;2;0;0;0;0;0;6;0;11826;2;0;0;0;0;0;7;0;9793;0;0;0;0;8;0;9528;0;0;0;0;9;0;5142;0;0;0;0
04.02.18;17:35:00;1;544;10590;0;2;0;7952;0;0;0;0;3;0;4842;0;0;85;4;4;0;6170;0;0;0;0;5;0;15532;2;0;0;0;0;0;6;0;11826;2;0;0;0;0;0;7;0;9793;0;0;0;0;8;0;9528;0;0;0;0;9;0;5142;0;0;0;0
04.02.18;17:30:00;1;535;10547;0;2;0;7952;2;0;272;11;3;0;4842;6;0;299;14;4;0;6170;0;0;0;0;5;0;15532;2;0;0;0;0;0;6;0;11826;0;0;0;0;0;0;7;0;9793;0;0;0;0;8;0;9528;0;0;0;0;9;0;5142;0;0;0;0
04.02.18;17:25:00;1;684;10505;0;2;0;7952;6;0;314;11;3;0;4842;6;0;370;14;4;0;6170;2;0;78;9;5;0;15532;2;0;1;111;111;7;6;0;11826;0;1;0;32;29;5;7;0;9793;0;0;0;0;8;0;9528;0;0;0;0;9;0;5142;0;0;0;0
04.02.18;17:20:00;1;471;10447;0;2;0;7952;6;0;352;11;3;0;4842;6;2;419;14;4;0;6170;1;0;118;10;5;0;15532;2;0;0;343;386;22;6;0;11826;23;6;2;491;180;20;7;0;9793;0;0;147;8;8;0;9528;0;0;155;8;9;0;5142;0;0;221;8
04.02.18;17:15:00;1;454;10408;0;2;0;7952;6;0;376;11;3;0;4842;6;2;449;14;4;0;6170;1;0;156;10;5;0;15532;23;0;0;413;520;22;6;0;11826;23;3;7;407;361;20;7;0;9793;6;0;310;14;8;0;9528;6;0;314;14;9;0;5142;6;0;332;10
04.02.18;17:10:00;1;785;10369;0;2;0;7952;6;0;397;12;3;1;4842;6;3;481;14;4;0;6170;1;0;197;11;5;10;15532;1;0;1;412;645;22;6;0;11826;23;4;1;305;576;21;7;0;9793;6;0;383;15;8;0;9528;6;0;382;14;9;0;5142;6;0;418;10
04.02.18;17:05:00;1;2239;10296;0;2;0;7952;6;0;411;12;3;1;4842;4;3;492;15;4;0;6170;1;0;210;11;5;55;15532;1;7;17;391;623;23;6;0;11826;1;5;3;471;591;21;7;0;9793;6;2;420;15;8;0;9528;6;2;425;15;9;0;5142;6;0;476;11
04.02.18;17:00:00;1;2280;10106;0;2;2;7952;6;7;409;12;3;0;4842;6;5;511;15;4;0;6170;3;0;212;11;5;87;15527;4;20;22;380;605;24;6;16;11826;23;6;7;509;492;22;7;1;9793;6;2;450;15;8;1;9528;6;2;453;15;9;1;5142;3;4;478;11
04.02.18;16:55:00;1;2265;9917;0;2;5;7952;6;11;415;13;3;2;4842;6;8;519;15;4;0;6170;3;0;229;12;5;113;15520;4;41;30;380;605;24;6;58;11824;4;26;18;459;276;23;7;2;9792;6;5;467;16;8;1;9528;6;5;469;15;9;1;5142;6;9;486;11
04.02.18;16:50:00;1;2520;9727;0;2;38;7951;6;65;379;13;3;6;4841;6;16;507;15;4;11;6170;3;11;199;12;5;147;15510;4;55;49;380;605;24;6;75;11819;4;59;38;459;276;23;7;3;9792;6;7;488;16;8;2;9528;6;7;489;16;9;1;5142;6;5;539;11
04.02.18;16:45:00;1;2295;9509;0;2;63;7948;4;96;363;14;3;6;4841;6;12;537;15;4;19;6169;3;20;198;12;5;177;15498;4;74;64;380;606;24;6;96;11812;4;47;37;459;276;23;7;40;9792;4;71;386;16;8;45;9528;4;71;360;16;9;4;5142;6;8;545;12
04.02.18;16:40:00;1;2735;9315;0;2;79;7943;4;111;368;14;3;6;4840;6;11;547;16;4;36;6168;3;38;198;12;5;204;15483;4;97;77;380;606;24;6;106;11804;4;55;38;459;276;23;7;52;9789;4;92;438;17;8;60;9524;4;87;379;16;9;4;5142;6;8;554;12
04.02.18;16:35:00;1;2673;9082;0;2;87;7937;4;120;366;14;3;8;4840;4;15;543;16;4;37;6165;3;38;198;13;5;219;15466;4;102;89;380;606;24;6;119;11795;4;66;44;459;276;23;7;61;9784;4;102;427;17;8;71;9519;4;104;420;16;9;0;5141;6;0;584;12
04.02.18;16:30:00;1;983;8881;0;2;92;7929;4;127;378;14;3;17;4839;3;28;532;16;4;51;6162;3;53;197;13;5;236;15447;4;108;96;380;606;24;6;122;11785;4;59;40;458;276;23;7;78;9780;4;111;385;17;8;80;9513;4;109;386;17;9;12;5141;3;21;537;12
04.02.18;16:25:00;1;387;8806;0;2;107;7922;4;140;369;15;3;59;4837;4;94;462;17;4;53;6158;3;55;197;13;5;262;15427;4;117;105;380;606;24;6;137;11775;4;97;63;459;276;23;7;88;9773;4;120;392;17;8;93;9507;4;123;412;17;9;10;5140;6;15;547;13
04.02.18;16:20:00;1;330;8775;0;2;124;7913;4;160;386;15;3;68;4832;4;107;460;17;4;72;6153;3;75;198;13;5;299;15405;4;140;115;380;605;24;6;152;11763;4;71;45;459;276;23;7;110;9766;4;146;442;18;8;109;9499;4;147;424;17;9;30;5139;6;43;518;13
04.02.18;16:15:00;1;330;8748;0;2;157;7902;4;196;382;16;3;90;4827;4;132;479;17;4;109;6147;3;113;224;14;5;358;15380;4;180;147;390;606;24;6;189;11750;4;112;74;459;281;23;7;153;9757;4;185;440;18;8;150;9490;4;186;416;18;9;82;5137;4;109;483;14
04.02.18;16:10:00;1;321;8720;0;2;192;7889;4;232;381;16;3;112;4819;4;153;512;18;4;136;6138;5;142;227;14;5;428;15350;4;203;177;394;610;25;6;280;11734;4;147;166;468;487;23;7;201;9744;4;237;426;18;8;203;9478;4;236;425;18;9;106;5130;4;137;501;14
04.02.18;16:05:00;1;278;8693;0;2;256;7873;4;297;387;17;3;150;4810;4;193;514;18;4;189;6127;5;197;231;14;5;525;15314;4;258;220;415;642;25;6;393;11710;4;198;217;573;561;23;7;270;9727;4;319;473;18;8;275;9461;4;315;471;18;9;144;5121;4;179;504;15
04.02.18;16:00:00;1;933;8670;0;2;348;7852;4;397;408;17;3;213;4798;4;256;491;18;4;258;6111;5;269;234;14;5;659;15269;4;319;275;413;686;25;6;492;11676;4;254;261;583;577;23;7;415;9705;4;459;459;19;8;402;9438;4;451;481;18;9;212;5110;4;250;510;15
04.02.18;15:55:00;1;804;8560;0;2;665;7823;4;719;393;18;3;356;4780;4;402;454;19;4;388;6090;5;404;252;15;5;1049;15213;4;522;440;429;698;25;6;767;11635;4;367;378;596;573;24;7;736;9671;4;784;495;19;8;710;9405;4;756;488;19;9;300;5092;4;334;453;16
04.02.18;15:50:00;1;805;8501;0;2;903;7771;4;964;405;18;3;433;4751;4;491;543;19;4;486;6059;5;506;255;15;5;1405;15125;4;725;609;434;713;25;6;1076;11569;4;550;550;612;577;24;7;1321;9610;4;1398;498;19;8;1305;9346;4;1375;493;19;9;550;5067;4;601;468;16
04.02.18;15:45:00;1;1204;8428;0;2;858;7695;4;919;400;19;3;399;4715;4;453;559;19;4;478;6018;5;498;255;15;5;1390;15008;4;705;595;438;709;25;6;1040;11480;4;544;539;608;588;24;7;1189;9500;4;1260;495;19;8;1153;9239;4;1221;492;19;9;539;5021;4;593;502;16
04.02.18;15:40:00;1;1729;8330;0;2;691;7625;4;749;409;19;3;393;4682;4;443;511;19;4;450;5979;5;469;249;15;5;1178;14888;4;601;503;435;699;25;6;916;11391;4;462;473;599;583;24;7;1055;9405;4;1125;479;20;8;1050;9145;4;1115;491;19;9;507;4978;4;560;504;17
04.02.18;15:35:00;1;1959;8172;0;2;842;7565;4;903;398;19;3;469;4648;4;519;446;19;4;533;5941;5;555;252;16;5;1564;14793;4;806;674;434;699;26;6;1154;11317;4;579;580;609;584;24;7;1575;9314;4;1655;496;20;8;1532;9056;4;1612;500;20;9;770;4934;4;832;521;17
04.02.18;15:30:00;1;351;8030;0;2;1080;7498;4;1149;402;19;3;557;4611;4;615;496;20;4;572;5898;5;596;257;16;5;1870;14655;4;981;811;437;706;26;6;1406;11217;4;720;702;612;580;24;7;2147;9190;4;2253;493;20;8;2150;8934;4;2258;496;20;9;1136;4873;4;1219;548;17
04.02.18;15:25:00;1;185;8003;0;2;469;7405;4;521;405;20;3;292;4563;4;337;513;20;4;344;5849;5;358;239;16;5;870;14506;4;431;368;421;686;26;6;660;11104;4;345;357;592;571;24;7;667;9009;4;721;475;20;8;663;8754;4;714;481;20;9;340;4778;4;382;542;17
04.02.18;15:20:00;1;185;7988;0;2;435;7366;4;487;402;20;3;270;4539;4;317;512;20;4;320;5820;5;334;241;17;5;872;14433;4;427;364;421;693;26;6;649;11049;4;332;340;587;570;24;7;578;8954;4;624;468;21;8;559;8699;4;610;480;20;9;281;4750;4;323;526;18
04.02.18;15:15:00;1;1818;7972;0;2;788;7330;4;854;412;22;3;445;4516;4;499;483;21;4;482;5794;5;503;244;17;5;1395;14360;4;707;597;427;693;26;6;999;10995;4;497;518;601;575;24;7;699;8905;4;747;467;21;8;674;8652;4;721;471;21;9;340;4727;4;385;525;18
04.02.18;15:10:00;1;2252;7817;0;2;1471;7264;4;1558;406;23;3;820;4479;4;888;497;22;4;823;5754;5;857;251;18;5;2872;14237;4;1562;1246;441;713;27;6;2190;10903;4;1145;1110;615;584;25;7;1996;8848;4;2108;486;22;8;1943;8597;4;2049;488;21;9;1042;4699;4;1117;537;19
04.02.18;15:05:00;1;2248;7629;0;2;1291;7142;4;1377;404;23;3;717;4411;4;786;528;22;4;705;5686;5;735;246;18;5;1730;14004;4;904;737;430;708;27;6;1223;10731;4;615;595;605;582;25;7;2714;8687;4;2844;475;22;8;2746;8441;4;2878;482;21;9;1513;4615;4;1612;539;20
04.02.18;15:00:00;1;2314;7442;0;2;2566;7039;4;2707;426;24;3;1561;4353;4;1664;520;22;4;1243;5629;5;1294;260;18;5;3713;13856;4;1992;1647;444;710;27;6;2785;10622;4;1444;1418;620;589;25;7;3259;8467;4;3420;487;22;8;3105;8215;4;3257;479;21;9;1625;4490;4;1727;539;20
04.02.18;14:55:00;1;2384;7248;0;2;1791;6830;4;1897;424;23;3;1111;4227;4;1196;529;22;4;1180;5527;5;1229;264;18;5;3964;13538;4;2142;1745;449;714;27;6;3029;10383;4;1560;1514;624;597;25;7;3798;8202;4;3990;490;22;8;3787;7962;4;3965;489;21;9;2031;4357;4;2154;540;20
04.02.18;14:50:00;1;2380;7049;0;2;818;6672;4;884;411;23;3;513;4128;4;573;521;22;4;732;5427;5;762;247;19;5;2579;13228;4;1408;1095;439;718;27;6;1816;10147;4;958;921;616;587;25;7;3077;7888;4;3218;485;21;8;3131;7648;4;3282;488;21;9;1699;4189;4;1809;552;19
04.02.18;14:45:00;1;2375;6851;0;2;826;6604;4;891;408;24;3;518;4086;4;576;521;22;4;668;5366;5;696;241;19;5;1704;13011;4;896;725;427;701;27;6;1320;9994;4;686;685;596;572;25;7;1280;7628;4;1355;489;22;8;1293;7385;4;1376;479;21;9;672;4047;4;733;539;19
04.02.18;14:40:00;1;1628;6656;0;2;943;6535;4;1015;405;26;3;594;4043;4;657;513;23;4;779;5311;5;811;241;20;5;1763;12874;4;931;765;423;681;28;6;1344;9890;4;695;695;588;569;25;7;1285;7519;4;1352;480;22;8;1298;7275;4;1373;480;22;9;698;3989;4;760;537;19
04.02.18;14:35:00;1;732;6544;0;2;2385;6457;4;2520;411;28;3;1472;3993;4;1569;521;24;4;1606;5246;5;1673;245;21;5;3704;12726;4;1981;1661;434;689;28;6;2728;9777;4;1408;1389;593;579;25;7;1591;7410;4;1669;476;22;8;1485;7164;4;1564;480;22;9;772;3929;4;838;528;20
04.02.18;14:30:00;1;275;6492;0;2;3011;6253;4;3173;410;28;3;1902;3867;4;2017;522;24;4;2075;5110;5;2162;253;21;5;5398;12379;4;2984;2378;441;716;27;6;4079;9516;4;2103;2068;613;586;25;7;4585;7274;4;4805;478;22;8;4548;7038;4;4777;481;21;9;2524;3864;4;2667;529;21
04.02.18;14:25:00;1;218;6469;0;2;2867;5997;4;3020;411;27;3;1842;3705;4;1955;510;23;4;2055;4933;5;2141;244;20;5;4705;11925;4;2580;2080;430;692;27;6;3599;9167;4;1873;1814;592;573;25;7;4684;6888;4;4910;484;21;8;4710;6655;4;4940;484;21;9;2604;3651;4;2759;539;20
04.02.18;14:20:00;1;817;6451;0;2;2830;5750;4;2981;401;28;3;1718;3545;4;1825;518;24;4;2059;4757;5;2145;240;20;5;4614;11536;4;2515;2069;431;688;27;6;3498;8868;4;1809;1777;600;571;25;7;2267;6528;4;2386;484;21;8;2263;6294;4;2380;478;21;9;1257;3451;4;1340;536;19
04.02.18;14:15:00;1;194;6403;0;2;2962;5522;4;3126;403;27;3;1884;3407;4;1994;499;23;4;1998;4590;5;2081;247;20;5;4927;11135;4;2684;2206;432;694;27;6;3735;8565;4;1945;1849;598;580;25;7;2970;6337;4;3114;479;21;8;2935;6101;4;3075;484;21;9;1607;3343;4;1704;517;20
04.02.18;14:10:00;1;194;6387;0;2;2941;5269;4;3098;403;27;3;1858;3246;4;1971;506;23;4;2329;4414;5;2426;240;20;5;5626;10731;4;3089;2509;432;696;26;6;4255;8254;4;2186;2141;594;568;24;7;3056;6096;4;3204;474;21;8;3022;5863;4;3168;464;20;9;1676;3212;4;1773;515;20